Regional Weather Roundup
Issued by NWS

Home | Current Version | Previous Version | Text Only | Print | Product List | Glossary Off
Versions: 1 2 3 4 5 6 7 8 9 10 11 12 13 14 15 16 17 18 19 20 21 22 23 24 25 26 27 28 29 30 31 32 33 34 35 36 37 38 39 40 41 42 43 44 45 46 47 48 49 50

769
ASUS43 KOAX 191910
RWRNE

WEATHER ROUNDUP FOR NEBRASKA
NATIONAL WEATHER SERVICE OMAHA NE
100 PM CST FRI JAN 19 2018

NOTES: SATELLITE DATA IS BEING USED TO AUGMENT CLOUD COVER ABOVE
       12000 FEET.
       "FAIR" INDICATES FEW OR NO CLOUDS BELOW 12,000 FEET WITH NO
       SIGNIFICANT WEATHER AND/OR OBSTRUCTIONS TO VISIBILITY.


NEZ001>004-019>022-054>056-192000-
NEBRASKA PANHANDLE

CITY           SKY/WX    TMP DP  RH WIND       PRES   REMARKS
SCOTTSBLUFF    CLOUDY    38  31  76 NW3       29.70F
ALLIANCE       CLOUDY    42  34  73 CALM      29.68F
CHADRON        CLOUDY    52  28  39 E3        29.69S
GORDON         FAIR      50  29  44 N9        29.67F
KIMBALL        CLOUDY    52  25  35 NW3       29.73F
SIDNEY         CLOUDY    50  27  40 NW9       29.71F
$$

NEZ057>060-069>072-079>082-192000-
SOUTHWEST NEBRASKA

CITY           SKY/WX    TMP DP  RH WIND       PRES   REMARKS
NORTH PLATTE   CLOUDY    46  30  53 NW6       29.68F
IMPERIAL       CLOUDY    50  28  42 W3        29.68F
LEXINGTON      CLOUDY    47  32  55 S3        29.66F
MCCOOK         CLOUDY    50  24  36 CALM      29.67F
OGALLALA       CLOUDY    46  32  58 W5        29.68F
$$

NEZ005>010-023>029-035>040-094-192000-
NORTH CENTRAL NEBRASKA

CITY           SKY/WX    TMP DP  RH WIND       PRES   REMARKS
VALENTINE      CLOUDY    56  31  38 NW13      29.64S
AINSWORTH      CLOUDY    54  36  50 W10       29.61F
BROKEN BOW     CLOUDY    47  29  49 SW7       29.64F
O`NEILL        CLOUDY    52  34  49 W7        29.59F
ORD            CLOUDY    63  26  24 SW5       29.61F
THEDFORD       CLOUDY    55  32  41 W7        29.63F
$$

NEZ041-046>049-061>064-073>077-083>087-192000-
SOUTH CENTRAL NEBRASKA

CITY           SKY/WX    TMP DP  RH WIND       PRES   REMARKS
GRAND ISLAND   CLOUDY    46  30  53 SW9       29.66F
AURORA         CLOUDY    47  29  50 SW10      29.67F
HASTINGS       CLOUDY    49  28  44 SW6       29.67F
HEBRON         CLOUDY    48  29  46 S12       29.71F
HOLDREGE       CLOUDY    49  28  43 SW3       29.67F
KEARNEY        CLOUDY    44  30  57 S9        29.66F
YORK           CLOUDY    46  28  49 SW13      29.68F
$$

NEZ011>018-030>034-042>045-192000-
NORTHEAST NEBRASKA

CITY           SKY/WX    TMP DP  RH WIND       PRES   REMARKS
NORFOLK        CLOUDY    53  33  46 S8        29.59F
ALBION         CLOUDY    55  33  42 S8        29.62F
BLAIR          CLOUDY    49  29  46 S17       29.65F
COLUMBUS       CLOUDY    53  27  36 SW15      29.64F
FREMONT        CLOUDY    51  25  37 S12G21    29.65F
TEKAMAH        CLOUDY    51  28  41 S17       29.63F
WAYNE          CLOUDY    52  31  45 SW17      29.58F
$$

NEZ050>053-065>068-078-088>093-192000-
SOUTHEAST NEBRASKA

CITY           SKY/WX    TMP DP  RH WIND       PRES   REMARKS
LINCOLN        CLOUDY    51  25  36 SW13      29.70F
OMAHA EPPLEY   CLOUDY    45  28  51 S13       29.69F
BEATRICE       CLOUDY    41  30  63 S18       29.73F
FALLS CITY     CLOUDY    47  27  45 S16       29.77F
NEBRASKA CITY  CLOUDY    42  29  60 SW18      29.71F
PLATTSMOUTH    CLOUDY    41  30  64 S9        29.71F
$$

NEZ044-045-051>053-067-192000-
OMAHA AREA

CITY           SKY/WX    TMP DP  RH WIND       PRES   REMARKS
OMAHA EPPLEY   CLOUDY    45  28  51 S13       29.69F
BLAIR          CLOUDY    49  29  46 S17       29.65F
FREMONT        CLOUDY    51  25  37 S12G21    29.65F
MILLARD        CLOUDY    49  29  45 S7        29.69F
OFFUTT AFB     CLOUDY    42  28  58 S9        29.69F
PLATTSMOUTH    CLOUDY    41  30  64 S9        29.71F
WAHOO          FAIR      49  24  37 S12       29.67F
$$




USA.gov is the U.S. government's official web portal to all federal, state and local government web resources and services.